Wetbulb
60.74 61.15 61.19 61.28 61.24 61.04 60.85 60.87 61.09 61.39 61.69 62.35 62.78 63.01 63.45 63.72 62.73 62.21 57.83 61.42 62.61 69.03 66.36 60.92 59.36 59.22 59.94 57.72 58.42 57.92 49.97 47.08 48.49 48.42 48.94 52.89 50.64 54.59 55.50 53.53 54.56 55.58 55.85 58.47 59.90
60.94 61.06 61.12 61.18 61.23 61.01 60.85 60.90 60.90 60.92 61.21 61.70 62.35 62.63 62.95 63.24 60.47 56.77 65.50 69.28 70.10 69.88 60.63 56.95 55.74 57.25 55.55 55.45 56.57 53.50 50.01 48.96 51.45 51.63 50.15 51.57 51.58 52.57 52.52 52.86 53.43 54.57 56.82 58.14 59.47
61.09 61.13 61.05 60.99 61.00 60.87 60.85 60.87 60.99 60.99 60.94 61.13 61.72 62.01 62.68 62.55 57.64 54.74 69.51 69.87 70.50 67.84 60.80 59.11 57.41 55.77 53.28 54.89 54.43 53.57 48.84 51.53 51.15 52.30 52.51 51.45 51.51 53.56 52.37 51.53 54.10 53.48 55.33 56.69 57.78
61.32 61.33 61.20 61.01 60.72 60.56 60.51 60.61 60.93 61.01 60.79 60.65 61.22 61.93 62.79 61.16 47.89 59.00 70.25 70.78 69.95 63.32 59.81 57.79 56.31 53.74 52.13 50.85 53.90 49.38 52.13 51.77 52.52 52.88 52.82 51.80 54.11 52.70 53.50 54.13 56.65 56.45 56.92 57.07 57.13
61.80 61.96 61.95 61.66 61.33 61.18 60.99 60.87 60.81 60.81 60.61 60.11 61.07 62.11 60.68 55.32 54.05 64.51 70.85 69.64 62.69 60.62 57.21 55.71 54.28 54.02 51.12 52.19 52.69 50.44 51.71 52.70 53.59 53.30 53.36 54.32 52.77 52.85 53.43 56.02 56.95 56.98 56.84 56.88 57.22
62.43 62.23 62.16 62.16 61.96 61.90 61.87 61.55 61.40 61.02 60.30 60.17 61.00 61.58 57.19 50.33 59.05 63.27 62.63 62.62 60.99 59.30 56.83 56.32 54.54 55.30 52.47 51.89 51.18 53.38 52.75 52.88 53.67 53.61 54.01 52.05 52.16 53.30 54.20 56.51 55.94 55.91 56.16 57.04 57.07
62.11 62.51 63.01 62.28 61.85 61.87 62.10 62.23 61.91 61.25 60.22 60.41 61.58 60.45 55.03 53.19 59.75 62.44 61.83 61.12 60.36 58.71 55.59 56.53 56.12 53.67 54.19 51.37 54.41 53.20 49.78 51.22 51.62 52.50 52.05 53.06 49.52 50.36 54.66 55.84 54.81 55.27 55.97 56.85 57.23
60.47 60.98 60.74 61.14 61.76 61.78 61.97 61.95 61.62 60.37 60.60 61.17 61.38 59.05 51.92 59.07 60.94 62.02 61.86 59.10 60.36 60.18 58.43 58.06 57.68 55.00 54.04 55.09 52.37 49.62 49.69 45.12 50.32 50.83 51.50 51.13 44.83 51.43 55.11 54.38 53.80 54.91 55.68 56.15 56.90
59.95 59.82 59.03 59.28 60.11 60.27 61.23 61.46 60.72 60.49 61.16 61.17 59.49 57.10 50.76 57.81 56.40 61.41 60.69 56.81 58.35 59.02 59.15 58.64 57.55 53.96 53.27 49.59 47.85 48.52 43.02 45.32 46.49 50.53 49.41 49.60 46.46 50.84 54.47 53.65 53.13 54.33 55.03 55.41 56.00
57.23 57.83 57.77 58.34 58.84 59.34 59.81 60.30 59.62 59.49 60.71 61.35 59.67 52.54 53.28 51.55 56.03 58.41 60.38 58.46 56.51 56.60 55.24 54.64 53.83 50.31 50.20 48.25 41.96 44.54 44.74 45.22 44.02 47.75 48.37 46.76 46.69 50.02 52.08 53.07 52.97 53.69 54.42 54.95 55.66
55.70 56.26 56.68 57.04 57.54 58.32 58.11 55.50 54.69 54.17 55.72 52.65 53.12 51.96 51.51 55.83 58.12 56.49 58.69 56.90 56.44 54.27 49.30 52.60 48.30 45.89 47.99 49.80 48.98 47.78 45.95 44.60 47.16 48.18 45.92 45.60 46.50 49.63 52.10 52.92 52.71 53.70 54.24 54.52 54.56
55.42 55.38 56.03 56.07 55.49 57.33 56.60 52.54 51.88 53.05 47.85 53.14 53.44 53.80 55.62 56.13 51.83 54.30 58.16 52.87 52.11 48.28 50.78 49.40 45.79 49.72 50.69 49.64 48.07 47.06 44.80 44.83 47.21 47.59 45.96 45.86 45.85 49.01 50.89 51.59 52.78 52.93 53.13 53.62 54.81
55.13 55.11 55.59 55.43 55.11 57.71 54.48 51.50 56.14 57.10 49.00 49.59 52.14 51.95 53.12 54.26 51.18 52.42 54.95 53.19 50.50 48.35 48.59 46.82 48.71 48.86 48.66 47.67 45.31 45.59 44.37 44.76 44.13 46.33 46.57 45.59 45.15 48.09 50.84 52.10 52.62 53.09 53.62 54.59 54.58
54.93 55.15 54.77 54.76 55.28 57.75 53.86 56.49 57.69 58.54 43.68 45.58 48.62 51.27 52.92 53.43 49.18 54.83 56.12 53.37 50.84 47.77 48.91 48.38 50.95 48.01 46.61 45.27 46.55 42.85 47.68 46.18 44.36 42.37 39.49 47.30 38.25 46.74 49.48 49.42 50.37 51.69 52.33 54.10 53.85
55.58 55.22 54.80 54.07 50.25 52.50 55.87 58.73 58.31 56.53 33.48 47.42 48.19 54.99 53.05 50.18 50.76 51.05 56.75 53.60 48.51 48.49 49.17 46.77 47.19 46.81 45.62 46.22 48.27 45.11 46.57 44.88 44.63 42.91 42.62 43.44 40.68 45.27 49.17 47.04 48.90 50.65 52.50 54.03 54.29
54.97 54.69 54.24 51.46 50.45 51.82 54.47 56.80 55.65 42.45 33.88 43.98 48.93 47.26 47.27 49.40 49.71 50.78 52.19 55.04 53.47 49.33 49.20 48.54 49.70 48.84 47.78 47.99 48.23 48.47 45.67 45.48 45.32 43.31 37.13 43.01 42.45 43.59 45.78 46.83 48.94 50.74 52.96 53.43 53.40
54.59 53.82 52.17 51.48 46.13 51.91 53.07 52.31 40.54 35.74 45.08 43.38 44.80 47.53 46.82 46.09 47.25 47.79 47.60 47.30 45.00 41.50 42.31 46.22 46.34 47.80 48.30 44.74 46.59 46.17 43.48 38.32 37.20 37.51 37.50 44.24 41.39 43.61 48.44 49.17 49.61 50.71 52.90 53.47 54.15
54.00 53.41 52.29 50.80 51.60 51.24 50.76 43.59 34.23 39.72 42.08 46.81 46.12 46.58 44.37 46.56 46.16 46.27 45.86 44.48 47.40 46.51 43.88 40.85 39.52 45.91 47.40 46.05 44.26 44.24 43.79 38.97 31.32 35.53 39.04 41.27 37.43 44.10 49.92 51.14 51.87 52.57 53.80 53.67 52.83
52.88 50.24 49.26 50.92 51.78 51.41 45.66 36.43 36.13 39.90 43.20 43.12 44.46 41.61 41.92 45.76 45.39 45.14 44.80 44.80 47.02 47.24 41.72 41.82 42.29 47.83 47.26 47.95 47.72 44.25 40.64 45.72 40.42 41.04 36.94 40.53 43.95 47.04 49.05 49.35 50.30 51.29 52.69 52.64 53.12
48.43 47.18 46.56 51.19 52.39 49.54 40.58 35.80 39.14 44.05 45.69 45.03 38.83 42.34 38.87 41.99 41.93 43.24 43.52 46.78 46.24 48.80 49.16 45.15 40.86 44.93 44.89 47.04 47.04 45.71 47.59 39.18 40.47 33.97 33.41 40.19 41.24 42.70 44.93 47.24 48.55 50.38 51.40 53.06 52.66
47.42 42.03 47.55 52.32 52.35 43.89 35.40 35.66 38.50 42.51 44.45 42.38 41.10 40.32 41.75 40.99 43.39 42.39 43.02 46.57 48.31 47.96 48.80 46.31 43.80 40.94 43.47 41.87 42.52 42.48 42.43 43.13 43.84 41.33 37.03 37.08 40.77 47.01 47.86 48.86 48.33 50.52 52.35 53.34 53.28
44.55 36.72 49.01 52.30 39.81 39.80 35.56 37.95 41.56 40.18 42.95 42.20 42.69 42.38 41.23 42.24 41.96 42.42 42.58 45.44 49.22 48.71 43.81 46.45 44.17 39.61 39.71 45.55 47.72 46.24 43.68 43.89 39.11 38.37 40.71 39.77 40.62 47.55 49.06 49.21 49.81 51.64 52.87 53.85 54.47
40.36 40.52 48.54 49.19 33.67 36.04 38.36 38.32 40.82 39.89 40.12 39.71 38.48 41.72 43.08 40.03 37.83 42.28 44.20 48.77 48.03 47.00 44.33 46.06 42.43 38.04 39.39 41.28 43.54 42.21 44.69 45.11 44.81 43.93 39.41 37.95 41.42 48.18 48.47 47.93 50.59 52.31 52.77 53.44 53.90
38.19 34.02 40.40 42.60 41.91 36.99 35.42 35.44 35.15 40.27 39.05 39.53 39.17 41.22 39.17 37.98 41.72 39.08 41.90 44.80 44.44 45.60 50.12 49.76 43.60 41.10 38.90 40.46 43.16 39.14 42.02 44.48 43.98 40.13 39.68 40.94 42.84 44.56 46.68 47.22 50.19 52.56 53.30 53.45 53.59
40.54 34.32 40.02 35.06 35.73 37.06 36.73 35.49 33.53 33.50 38.37 39.04 36.50 37.07 37.03 34.52 36.52 37.48 41.08 42.36 44.52 44.76 43.76 44.69 38.67 42.74 43.89 44.90 44.65 43.36 42.00 42.74 41.83 43.15 40.52 43.06 43.66 46.22 47.03 48.36 50.15 52.75 53.45 53.23 53.17
35.36 33.75 39.17 37.34 37.83 36.56 36.40 34.49 33.79 35.22 36.01 34.53 34.33 36.66 36.48 33.35 35.37 34.91 38.25 38.25 37.78 41.44 41.08 43.61 38.70 42.25 40.90 43.68 42.42 41.30 43.38 43.45 43.20 43.78 43.56 44.13 43.84 48.51 49.93 50.78 50.39 51.72 52.68 52.56 52.92
41.61 40.24 37.66 35.69 35.58 34.32 34.54 34.99 34.82 36.80 37.29 37.97 36.94 35.82 34.70 36.44 39.08 40.19 40.86 42.26 40.99 38.51 37.29 37.92 39.66 38.75 37.12 42.66 40.79 36.89 41.64 42.78 43.77 45.05 44.65 41.57 46.10 48.95 47.42 49.07 49.88 51.22 52.52 52.72 53.45
MSLP
1018.38 1018.04 1017.74 1017.60 1017.31 1017.09 1016.84 1016.37 1016.04 1015.70 1015.38 1015.00 1014.69 1014.34 1014.16 1013.92 1013.32 1012.67 1010.95 1010.26 1010.61 1011.06 1011.29 1011.01 1011.08 1010.67 1010.56 1010.39 1010.60 1010.13 1008.86 1007.18 1006.74 1006.91 1006.72 1007.46 1007.71 1007.70 1008.02 1007.80 1007.65 1007.79 1007.86 1008.10 1008.88
1018.80 1018.45 1018.04 1017.71 1017.38 1017.06 1016.65 1016.31 1015.91 1015.56 1015.25 1014.92 1014.63 1014.39 1014.04 1014.00 1012.81 1010.77 1009.99 1010.36 1010.65 1010.91 1010.91 1010.75 1010.47 1010.57 1010.11 1010.03 1010.23 1009.74 1008.47 1007.22 1007.60 1007.54 1007.52 1007.74 1007.92 1007.66 1007.94 1007.54 1007.52 1007.89 1008.05 1008.68 1009.05
1018.94 1018.61 1018.30 1017.92 1017.60 1017.12 1016.67 1016.16 1015.75 1015.51 1015.16 1014.85 1014.48 1014.12 1013.91 1013.75 1012.02 1009.08 1009.24 1010.17 1010.60 1010.73 1010.28 1010.21 1010.08 1010.16 1009.86 1009.95 1009.68 1009.04 1008.47 1007.94 1008.09 1008.22 1008.16 1008.07 1008.08 1008.10 1007.88 1007.61 1007.53 1007.89 1008.27 1008.79 1009.05
1018.80 1018.58 1018.26 1017.92 1017.61 1017.29 1016.76 1016.21 1015.64 1015.25 1014.93 1014.70 1014.50 1014.11 1013.78 1012.92 1010.33 1009.13 1009.96 1010.24 1010.52 1010.05 1010.05 1009.97 1010.04 1009.97 1009.72 1009.57 1009.17 1009.07 1008.40 1008.45 1008.33 1008.50 1008.52 1008.39 1008.06 1007.80 1007.81 1007.70 1008.16 1008.72 1008.96 1009.02 1008.92
1018.67 1018.34 1018.08 1017.82 1017.50 1017.15 1016.76 1016.29 1015.65 1015.13 1014.67 1014.33 1014.28 1014.12 1013.60 1011.52 1009.19 1009.43 1010.19 1010.47 1010.36 1010.17 1009.76 1009.73 1009.66 1009.68 1009.33 1008.90 1008.94 1008.76 1008.14 1008.32 1008.33 1008.56 1008.61 1008.51 1008.15 1007.85 1007.41 1007.58 1008.46 1008.79 1009.15 1009.08 1009.10
1018.68 1018.38 1017.94 1017.71 1017.40 1016.98 1016.57 1016.10 1015.54 1014.95 1014.50 1014.02 1013.87 1013.98 1012.90 1010.30 1008.74 1009.10 1009.60 1010.06 1009.82 1009.95 1009.53 1009.61 1009.38 1009.22 1009.24 1008.79 1008.75 1008.26 1008.31 1008.03 1007.97 1008.05 1008.07 1008.12 1007.75 1007.53 1007.23 1007.29 1008.21 1008.67 1008.74 1008.84 1008.93
1018.76 1018.35 1018.00 1017.55 1017.12 1016.66 1016.14 1015.62 1015.12 1014.60 1014.10 1013.68 1013.65 1013.30 1011.41 1009.21 1008.62 1008.81 1009.32 1009.51 1009.71 1009.66 1009.50 1009.46 1009.49 1009.57 1009.00 1008.84 1008.73 1008.64 1008.21 1007.53 1007.17 1007.42 1007.67 1007.93 1007.41 1006.73 1006.99 1007.00 1007.75 1008.03 1008.34 1008.64 1008.95
1019.13 1018.68 1018.18 1017.71 1017.09 1016.44 1015.87 1015.33 1014.69 1014.18 1013.84 1013.60 1013.36 1012.67 1009.96 1008.83 1008.68 1008.84 1009.23 1009.27 1009.64 1009.70 1009.72 1009.80 1009.76 1009.50 1009.28 1009.00 1008.75 1008.26 1007.57 1006.84 1005.89 1007.12 1007.46 1008.10 1006.45 1005.56 1006.04 1006.96 1007.30 1007.38 1007.59 1007.86 1008.47
1019.35 1018.94 1018.39 1017.83 1017.11 1016.41 1015.62 1014.72 1014.17 1013.90 1013.68 1013.44 1013.06 1011.67 1009.28 1009.46 1008.89 1008.59 1008.89 1008.97 1009.39 1009.61 1009.80 1009.97 1009.90 1009.28 1009.21 1008.87 1007.82 1007.20 1006.45 1005.81 1006.00 1006.84 1007.21 1007.48 1006.13 1005.57 1006.46 1006.82 1006.88 1007.01 1007.10 1007.39 1007.88
1019.53 1019.08 1018.56 1017.91 1017.09 1016.25 1015.32 1014.05 1013.60 1013.71 1013.49 1012.80 1011.87 1011.16 1008.74 1008.02 1007.91 1008.11 1008.52 1008.73 1009.21 1009.53 1009.84 1009.75 1009.38 1008.87 1008.37 1007.67 1006.58 1005.77 1005.65 1005.68 1005.99 1006.31 1007.04 1006.72 1006.00 1005.73 1005.71 1006.40 1006.67 1006.78 1007.01 1007.52 1007.67
1019.84 1019.25 1018.60 1017.71 1016.96 1016.15 1014.98 1013.06 1013.32 1012.94 1012.07 1010.38 1009.36 1008.43 1007.70 1007.67 1008.00 1007.97 1008.11 1008.52 1008.87 1009.20 1008.96 1008.82 1008.52 1007.48 1006.94 1006.85 1006.72 1006.49 1006.53 1006.13 1005.89 1006.11 1006.89 1006.39 1005.61 1005.16 1005.19 1005.72 1006.39 1006.96 1007.34 1007.77 1008.25
1019.74 1019.31 1018.67 1017.79 1016.97 1015.88 1015.19 1013.65 1014.66 1014.78 1012.03 1009.78 1008.88 1008.35 1007.78 1007.78 1007.33 1007.29 1008.02 1008.23 1008.24 1007.94 1008.18 1008.12 1007.51 1006.84 1006.56 1006.74 1006.88 1006.98 1006.68 1006.16 1005.87 1006.23 1006.92 1006.02 1005.02 1004.73 1004.87 1005.36 1006.36 1007.12 1007.78 1008.47 1008.87
1019.88 1019.36 1018.73 1017.65 1016.47 1015.68 1015.02 1014.93 1014.71 1014.31 1012.25 1008.16 1006.87 1006.65 1006.72 1007.56 1006.65 1006.20 1007.19 1007.33 1007.14 1007.27 1006.96 1006.84 1006.06 1006.61 1006.61 1006.95 1007.13 1006.74 1006.62 1006.28 1006.15 1006.34 1006.42 1005.89 1004.41 1003.67 1004.76 1005.90 1007.03 1007.64 1008.21 1008.77 1009.88
1019.92 1019.44 1018.88 1017.82 1016.50 1015.83 1014.80 1015.23 1014.51 1014.26 1011.39 1006.55 1005.90 1005.31 1005.65 1006.54 1006.14 1005.63 1006.34 1006.59 1006.46 1006.36 1006.48 1006.28 1006.13 1006.38 1006.74 1006.61 1006.82 1006.48 1006.34 1006.69 1006.96 1007.00 1005.89 1006.09 1004.28 1003.32 1004.35 1005.76 1006.90 1007.32 1008.07 1009.09 1010.48
1019.84 1019.67 1018.88 1018.55 1017.83 1016.40 1015.97 1015.28 1014.64 1013.88 1009.90 1005.12 1005.53 1005.74 1005.02 1005.53 1004.58 1004.87 1005.60 1006.16 1005.59 1005.97 1006.05 1005.25 1005.74 1005.86 1006.33 1006.31 1006.56 1006.68 1007.16 1007.27 1007.41 1007.05 1006.41 1005.52 1005.25 1002.63 1003.74 1004.85 1005.88 1006.99 1008.30 1009.46 1010.51
1019.78 1019.45 1019.33 1017.83 1017.43 1016.76 1016.44 1015.51 1014.42 1012.75 1007.35 1005.17 1005.38 1005.57 1005.44 1005.49 1004.85 1005.63 1005.40 1005.92 1005.99 1005.90 1005.79 1005.36 1005.88 1005.91 1005.91 1006.37 1006.42 1006.99 1007.56 1007.64 1007.57 1007.25 1005.96 1004.19 1004.64 1002.17 1003.17 1004.10 1005.36 1007.14 1008.24 1009.67 1010.57
1019.85 1019.37 1019.25 1018.48 1017.08 1016.90 1016.53 1015.26 1013.50 1009.67 1005.93 1004.49 1004.68 1005.09 1004.96 1004.84 1004.88 1005.40 1005.42 1005.28 1005.13 1005.43 1004.96 1005.41 1005.36 1005.99 1006.09 1006.61 1007.16 1007.34 1007.24 1006.96 1006.73 1006.65 1005.02 1004.86 1004.60 1002.92 1003.59 1004.76 1005.64 1006.92 1008.19 1009.66 1010.48
1019.68 1019.43 1018.31 1017.95 1017.38 1017.03 1016.44 1015.40 1011.59 1007.11 1005.92 1005.25 1005.31 1005.24 1004.89 1004.41 1004.74 1004.98 1004.76 1004.69 1004.89 1004.34 1004.01 1004.25 1004.01 1004.58 1005.25 1005.00 1005.84 1006.45 1006.51 1006.57 1006.40 1005.56 1005.07 1005.48 1004.06 1002.88 1003.40 1005.18 1006.32 1007.30 1008.34 1009.69 1010.76
1019.17 1018.56 1017.63 1017.23 1016.82 1017.06 1015.97 1013.75 1009.05 1007.72 1006.98 1006.21 1005.57 1005.00 1004.91 1004.69 1004.59 1004.41 1004.18 1003.46 1003.37 1003.89 1003.72 1003.02 1002.97 1003.46 1004.53 1004.88 1005.16 1005.49 1005.96 1006.06 1006.12 1006.02 1005.61 1003.86 1003.04 1003.52 1004.15 1005.27 1006.32 1007.26 1008.42 1009.49 1010.53
1018.84 1017.81 1016.60 1016.11 1016.54 1016.33 1015.33 1011.79 1009.55 1008.74 1007.71 1007.78 1006.65 1005.50 1004.57 1004.68 1004.83 1004.31 1003.76 1002.40 1002.45 1002.72 1003.39 1002.90 1003.12 1004.08 1005.13 1005.19 1005.18 1005.35 1005.25 1005.90 1006.10 1005.31 1003.65 1001.46 1001.35 1001.09 1003.18 1004.14 1005.59 1006.66 1007.83 1008.95 1010.43
1018.40 1017.20 1015.17 1015.57 1015.82 1015.55 1013.65 1011.93 1010.80 1009.87 1009.36 1009.02 1008.07 1006.79 1005.37 1004.55 1003.95 1003.97 1002.76 1002.08 1001.98 1002.19 1002.88 1003.44 1003.52 1004.43 1005.35 1004.52 1003.64 1005.08 1004.71 1004.58 1004.22 1003.92 1002.49 1000.84 999.95 1000.12 1001.33 1002.94 1004.28 1005.81 1007.13 1008.39 1009.90
1017.97 1016.39 1014.44 1014.97 1014.93 1013.69 1013.16 1012.15 1011.48 1010.30 1009.64 1009.41 1009.61 1008.90 1007.81 1006.41 1004.83 1003.83 1003.11 1002.74 1002.50 1002.47 1002.73 1002.84 1002.91 1002.88 1003.67 1003.22 1003.33 1003.39 1003.47 1003.42 1002.84 1002.73 1002.43 1001.59 1000.56 1000.61 1001.06 1002.43 1003.66 1005.13 1006.65 1008.06 1009.24
1016.60 1015.59 1014.71 1014.47 1013.48 1012.89 1012.32 1011.56 1010.78 1010.61 1010.46 1010.39 1009.70 1009.64 1009.05 1008.56 1007.31 1005.22 1004.08 1003.62 1003.72 1003.66 1003.40 1003.04 1002.73 1002.41 1002.34 1003.53 1003.58 1002.87 1002.52 1002.34 1002.32 1001.94 1001.61 1000.99 1000.09 1000.85 1001.44 1002.46 1003.60 1004.82 1006.44 1007.75 1009.12
1017.44 1015.09 1014.37 1013.93 1012.53 1011.97 1011.35 1010.69 1010.33 1010.42 1010.36 1010.81 1010.72 1010.12 1009.53 1009.51 1008.94 1007.27 1005.74 1005.30 1005.70 1004.93 1004.17 1003.56 1002.68 1001.73 1000.07 1000.51 1000.81 1001.58 1001.21 1001.52 1001.49 1001.02 1000.73 999.92 999.99 1001.00 1001.60 1002.32 1003.38 1004.66 1006.08 1007.39 1008.84
1016.49 1014.52 1013.06 1012.64 1012.02 1011.38 1011.04 1010.70 1010.34 1010.21 1010.27 1010.61 1010.52 1010.56 1010.26 1009.65 1008.96 1008.48 1008.07 1007.24 1007.08 1006.65 1005.54 1004.46 1003.34 1002.13 1000.76 1000.01 1000.06 999.92 1000.01 1000.17 1000.28 999.71 999.63 998.89 998.79 999.20 1000.78 1001.79 1002.75 1004.14 1005.61 1006.85 1008.18
1015.50 1015.67 1013.72 1012.39 1011.47 1010.89 1010.28 1010.37 1010.24 1010.12 1010.38 1010.32 1010.29 1010.61 1010.90 1011.15 1011.02 1009.92 1009.47 1009.42 1008.91 1007.91 1006.46 1005.12 1003.76 1002.52 1000.81 1000.38 1000.38 999.83 999.29 999.24 999.21 999.41 999.35 998.78 998.47 998.98 999.91 1001.34 1002.43 1003.55 1004.84 1006.06 1007.44
1014.26 1014.78 1014.39 1011.56 1010.81 1010.23 1009.67 1009.70 1009.81 1010.19 1010.18 1010.13 1010.07 1010.08 1009.92 1010.29 1010.89 1011.02 1010.99 1010.44 1009.62 1009.03 1008.05 1006.50 1004.93 1003.57 1001.13 1000.15 1000.49 999.61 997.79 998.23 998.19 998.52 998.43 998.18 997.70 998.70 999.42 1000.38 1001.42 1002.64 1003.95 1005.16 1006.52
Wind_Speed
11 11 12 13 13 14 16 17 17 15 14 13 14 14 14 14 16 9 11 4 6 9 4 5 7 4 4 3 5 3 6 8 6 6 2 5 6 6 1 8 5 3 7 9 5
14 14 13 13 13 14 14 16 17 17 16 14 13 12 12 13 15 15 8 11 12 10 7 8 5 6 4 3 5 7 7 6 6 4 4 2 6 6 5 8 8 6 4 2 5
14 15 16 16 16 15 14 14 15 17 17 17 14 11 12 12 14 11 17 14 11 10 6 8 4 6 6 4 7 5 8 4 4 6 4 6 7 8 8 9 8 4 3 1 3
13 15 16 16 16 17 17 16 15 15 16 17 16 13 10 9 4 6 12 12 9 9 7 6 6 7 5 8 7 8 9 6 2 1 4 9 9 8 11 11 3 2 2 3 5
13 12 14 16 17 18 19 19 18 18 16 14 14 11 7 9 11 14 11 11 10 7 8 7 9 8 11 7 7 12 10 6 7 6 9 10 12 13 13 10 6 5 6 6 6
10 10 11 13 15 17 19 20 20 20 18 13 9 7 9 13 5 13 14 11 10 10 8 8 8 7 9 9 9 5 8 10 8 10 11 11 13 13 12 12 10 9 10 8 7
16 17 15 12 13 16 18 19 21 21 18 10 7 7 11 12 2 11 13 13 9 9 8 7 5 8 2 9 10 10 12 12 13 13 12 6 15 17 16 9 13 13 11 8 8
17 17 18 19 18 17 20 20 20 18 11 6 4 9 8 4 6 11 13 11 8 5 6 3 4 7 7 3 8 10 12 11 4 5 7 7 15 10 7 9 14 14 12 9 9
19 18 20 20 20 21 21 23 20 9 5 5 7 10 10 3 11 13 15 13 11 6 5 5 5 7 5 11 11 11 12 8 6 9 8 10 11 6 4 9 13 14 12 10 10
17 18 20 21 21 22 24 24 3 4 7 7 7 6 8 8 10 15 15 12 12 9 7 10 7 9 10 11 12 8 10 9 8 6 9 14 17 15 14 10 13 13 10 11 11
18 18 19 21 22 23 17 6 6 8 10 12 4 13 1 4 4 14 17 14 13 13 14 13 10 14 15 14 16 13 13 15 13 6 8 16 16 14 10 11 11 11 9 9 12
16 18 19 23 23 21 9 6 7 7 13 17 21 21 15 6 9 15 19 17 16 18 17 10 15 17 13 8 9 12 16 16 13 4 8 16 18 15 13 9 8 4 6 9 11
16 18 21 25 23 10 6 7 9 6 10 16 23 23 20 20 17 19 24 23 20 19 19 18 8 3 12 12 13 15 16 16 15 11 13 17 23 15 6 6 5 6 2 5 8
13 15 20 28 9 10 2 11 11 5 9 13 9 8 18 14 16 21 24 22 16 20 19 15 20 12 10 14 11 14 13 11 12 9 9 2 8 5 12 10 9 4 2 5 5
10 13 16 17 10 8 11 13 12 6 10 10 9 3 4 19 8 20 21 23 22 18 15 9 11 13 16 18 15 13 0 4 8 10 14 16 8 8 10 10 11 4 2 4 4
10 10 14 8 7 7 13 15 7 7 15 5 7 7 9 19 11 3 18 23 15 20 17 20 1 10 13 5 9 5 5 6 8 8 10 18 13 6 10 10 9 5 6 5 3
8 9 12 9 6 11 11 6 7 12 2 7 6 8 14 15 21 13 20 25 16 18 21 18 20 9 8 8 5 10 7 3 6 6 4 4 6 13 9 6 6 8 8 6 5
9 10 10 10 10 9 7 5 15 11 23 1 1 5 10 12 19 17 19 23 27 20 10 18 12 24 18 20 9 17 15 5 5 4 2 2 8 2 7 9 9 7 7 7 4
8 10 7 8 7 5 7 14 12 14 16 21 17 20 16 16 9 19 23 24 25 27 17 11 13 5 6 16 16 11 14 12 13 11 7 8 11 6 9 11 10 10 10 8 6
9 10 12 10 7 7 10 23 18 16 15 9 15 13 16 18 14 13 15 14 25 26 22 11 8 10 6 7 10 10 10 8 7 5 7 9 10 6 15 15 13 12 12 11 7
8 8 6 10 10 7 12 16 20 25 23 8 14 19 19 20 20 19 12 15 19 19 21 18 13 8 9 15 16 11 13 8 5 9 5 6 3 7 14 16 16 14 13 12 11
7 6 8 10 11 11 14 19 12 26 20 17 6 19 22 22 19 21 25 19 13 12 23 26 12 12 17 1 16 19 18 18 8 9 8 9 3 4 11 12 13 14 13 12 12
6 8 7 11 11 11 16 22 24 23 20 20 20 18 15 20 22 17 19 12 2 10 13 14 14 13 14 7 7 12 20 20 19 11 12 8 2 5 10 11 12 14 14 13 13
4 5 9 9 13 21 21 23 22 19 18 7 14 21 20 19 18 11 17 5 7 8 6 7 15 24 17 14 15 14 22 23 20 15 15 16 5 11 12 13 13 14 15 15 14
7 5 7 6 16 22 20 18 17 18 16 15 14 16 21 24 25 19 26 23 14 7 6 7 13 23 23 25 9 13 21 27 27 25 16 16 16 13 17 17 16 16 16 16 16
9 4 9 13 16 20 18 21 23 18 15 12 15 17 17 14 17 20 16 16 8 8 5 6 15 19 22 23 12 14 16 22 28 25 25 17 11 6 16 16 16 17 18 17 17
7 5 6 10 17 17 16 22 18 16 15 16 17 18 19 17 18 19 15 13 8 4 5 5 12 17 18 19 11 16 23 19 21 23 23 22 20 8 11 19 20 20 19 19 19
Wind_Direction
359 360 1 356 356 352 346 344 343 342 339 334 329 326 320 312 301 226 246 107 147 149 199 176 225 192 223 198 254 271 256 258 249 246 250 140 238 159 303 272 193 263 289 26 355
354 351 353 352 351 349 345 341 337 336 333 330 325 321 312 314 281 256 145 130 139 157 182 200 194 197 213 223 215 246 258 305 9 299 256 189 265 275 247 235 241 224 227 15 321
356 352 348 347 344 343 338 336 333 330 329 327 322 316 310 310 271 249 132 147 155 182 240 229 242 228 257 252 225 202 259 27 255 265 264 272 251 240 260 259 265 287 332 320 301
359 352 349 345 342 338 333 329 327 325 324 325 315 310 315 263 284 69 141 146 161 207 209 201 223 227 253 237 222 262 233 257 298 197 250 253 266 253 242 262 27 201 269 255 268
1 353 348 343 340 336 331 326 323 319 317 315 306 305 283 230 254 129 145 152 176 194 212 214 231 233 251 258 246 245 265 241 240 243 256 269 262 267 263 244 214 205 222 240 256
339 342 342 341 336 333 328 322 319 316 312 301 288 292 242 257 39 152 174 173 197 211 209 222 239 266 287 264 248 346 282 264 245 252 258 257 259 244 249 235 219 217 231 239 255
357 350 337 324 324 323 319 315 314 313 306 283 262 237 257 244 329 173 187 191 204 220 229 223 249 224 298 255 242 269 270 264 243 243 242 268 261 246 255 199 228 225 240 239 258
354 350 350 342 327 318 315 311 309 308 297 261 227 231 259 38 232 203 188 195 200 206 262 198 213 248 248 330 246 253 255 268 144 197 217 221 278 294 178 219 239 242 243 234 248
2 357 350 342 333 327 315 308 305 289 247 211 220 232 258 123 202 202 196 196 191 195 174 185 220 242 184 239 247 218 271 231 253 187 255 218 284 317 197 238 251 256 255 269 282
357 353 344 337 332 326 319 298 306 228 218 227 268 239 217 226 189 194 195 205 188 191 193 212 225 232 217 229 244 294 232 258 260 192 228 261 268 270 263 227 260 261 273 277 298
354 350 342 334 328 322 321 293 219 194 219 246 290 245 285 130 151 206 190 189 206 205 225 200 229 229 242 226 258 299 285 280 283 280 270 268 268 276 266 242 246 262 273 311 321
352 348 341 331 325 317 287 342 30 325 292 265 255 256 260 242 211 202 182 195 200 214 223 204 238 249 260 273 267 256 266 268 275 314 276 277 278 278 260 260 260 277 297 326 336
347 347 340 329 317 298 346 36 334 301 261 269 233 233 225 218 229 197 190 203 206 223 224 232 262 20 255 226 243 244 257 271 286 309 278 267 279 237 205 218 184 228 305 338 9
341 344 343 330 295 335 85 344 331 309 274 250 199 237 219 204 234 235 193 203 222 229 230 241 249 226 228 234 232 260 255 255 278 285 283 115 290 248 171 199 200 220 40 55 22
336 339 341 329 312 317 346 326 314 243 283 58 141 19 220 191 132 201 186 211 220 217 217 226 212 231 236 245 243 262 153 244 265 274 284 271 246 239 161 199 199 175 130 98 47
328 333 333 320 302 295 326 312 269 230 244 168 140 182 183 203 208 89 190 219 228 238 226 246 38 204 228 235 239 107 211 237 258 263 260 250 209 252 178 218 131 166 159 114 89
312 313 310 300 284 335 323 294 223 233 154 200 202 191 212 198 216 186 196 197 202 211 228 222 227 211 187 183 191 199 215 248 233 198 262 52 232 255 112 131 150 158 158 130 101
294 302 283 275 280 294 285 222 233 253 230 304 43 225 239 216 217 202 203 209 216 217 241 217 219 207 199 210 196 206 210 196 234 246 265 154 236 239 124 140 138 144 149 138 132
298 276 273 266 262 219 222 220 233 248 276 290 285 263 255 240 236 212 226 221 215 220 214 225 227 202 182 207 217 180 223 248 277 262 273 217 233 168 172 167 166 165 174 160 157
288 286 269 247 208 203 225 235 244 262 298 321 267 245 232 233 212 220 218 225 226 212 224 251 237 182 174 194 226 238 177 177 217 235 245 213 240 226 187 191 178 181 186 164 160
269 274 252 175 182 210 231 237 252 260 277 289 268 261 261 246 229 224 239 218 215 213 198 227 246 166 154 211 186 180 201 221 230 230 287 291 191 5 175 189 179 184 182 172 164
249 240 173 193 211 211 234 242 244 258 275 278 262 276 276 284 279 249 242 246 206 211 196 208 229 208 210 135 231 205 213 214 213 217 233 290 295 193 146 168 168 171 170 171 156
237 220 197 197 223 232 241 250 240 255 259 263 263 240 270 301 289 270 262 259 193 195 193 203 229 240 183 192 210 227 216 228 225 258 256 241 129 163 143 159 168 162 167 166 152
270 227 207 222 233 235 226 241 252 253 259 252 277 281 271 256 268 273 276 56 354 268 274 261 219 224 222 221 174 203 209 215 224 225 231 235 203 190 182 179 173 167 170 168 164
234 230 194 203 216 226 239 247 250 249 246 234 250 261 262 266 259 262 265 273 322 310 273 185 233 242 244 259 236 208 204 204 211 218 226 239 232 200 193 194 184 173 174 174 173
236 234 237 235 217 216 215 230 237 239 251 245 245 247 256 272 286 278 310 280 244 299 277 195 250 253 249 243 228 238 225 211 213 221 233 248 242 274 182 188 183 181 179 182 182
196 215 285 217 207 215 201 213 227 242 256 256 265 269 267 255 267 274 295 285 242 272 316 291 231 246 250 230 218 250 221 210 216 220 225 231 239 249 200 188 190 185 185 187 184